Weather Roundup
Issued by NWS Chicago, IL

Home | Current Version | Previous Version | Text Only | Print | Product List | Glossary Off
Versions: 1 2 3 4 5 6 7 8 9 10 11 12 13 14 15 16 17 18 19 20 21 22 23 24 25 26 27 28 29 30 31 32 33 34 35 36 37 38 39 40 41 42 43 44 45 46 47 48 49 50

000
NZUS59 KLOT 020112
HRRLOT

CHICAGO AREA WEATHER ROUNDUP
NATIONAL WEATHER SERVICE CHICAGO/ROMEOVILLE IL
800 PM CDT SAT AUG 01 2015

NOTE: "FAIR" INDICATES FEW OR NO CLOUDS BELOW 12,000 FEET WITH NO
SIGNIFICANT WEATHER AND/OR OBSTRUCTIONS TO VISIBILITY.

* THESE STATIONS ARE NOT UNDER NWS QUALITY CONTROL. THEY ALSO MAY NOT
  REPORT WEATHER SUCH AS PRECIPITATION OR FOG.

ILZ005-006-012>014-019>023-020200-
NORTHEAST ILLINOIS

CITY           SKY/WX    TMP DP  RH WIND       PRES   REMARKS
OHARE          MOCLDY    81  61  50 W13       29.89S HX  82
MIDWAY         MOCLDY    83  61  47 SW15      29.89S HX  83
AURORA         MOCLDY    77  64  64 SW9       29.91S
LANSING*       MOCLDY    79  60  53 SW8       29.91S HX  80
JOLIET*        MOCLDY    80  65  60 SW6       29.92R HX  82
WAUKEGAN       CLEAR     79  64  60 CALM      29.87R HX  81
DUPAGE AIRPORT PTCLDY    78  62  57 SW10      29.90S HX  80
WHEELING       PTCLDY    82  61  48 W8        29.89S HX  83
KANKAKEE*      CLOUDY    76  66  70 SW7       29.94S
MORRIS*        CLOUDY    76  65  69 SW6       29.91S
LEWIS AIRPORT* MOCLDY    78  61  55 SW9       29.91S
NORTHERLY IS     N/A     82  59  45 W6          N/A  HX  82
$$

WIZ051-052-058>065-066-070>072-020200-
SOUTHEAST WISCONSIN

CITY           SKY/WX    TMP DP  RH WIND       PRES   REMARKS
MILWAUKEE      PTCLDY    75  59  57 SE10      29.87S
KENOSHA*       CLEAR     73  62  68 E5        29.88S
RACINE*        CLEAR     75  60  59 S8        29.89S
BURLINGTON     CLEAR     76  60  57 CALM      29.88S
WAUKESHA       CLEAR     77  57  50 SW6       29.89S
WEST BEND      CLEAR     75  55  50 CALM      29.86S
$$

INZ001>003-010>013-019-020-020200-
NORTHWEST INDIANA

CITY           SKY/WX    TMP DP  RH WIND       PRES   REMARKS
GARY*          MOCLDY    82  61  47 W14G26    29.90S HX  83
MICHIGAN CITY* NOT AVBL
RENSSELAER*    NOT AVBL
VALPARAISO     PTCLDY    78  60  53 SW10      29.92S
$$

LMZ740>746-020200-
SOUTHERN LAKE MICHIGAN

STATION/POSITION TIME  SKY/WX   TEMP WIND        PRES    VSBY
                                AIR  DIR/SP/G
                 (UTC)          (F)  (DEG/KT/KT) (MB)    (MI)
HARRISON CRIB    0000            82  250/ 17/ 20   N/A
BURNHAM HARBOR   0100            82  280/  7/ 17   N/A
CALUMET HARBOR   0000            83  230/ 10/ 17   N/A
BURNS HARBOR     0000            83  230/ 12/ 17 1012.9S
MICHIGAN CITY    0000            79  220/  7/  8   N/A
$$

ABBREVIATIONS USED IN REMARKS
   TC - TEMPERATURE IN CELSIUS
  WCI - WIND CHILL INDEX
   HX - HEAT INDEX
  VSB - VISIBILITY
$$


USA.gov is the U.S. government's official web portal to all federal, state and local government web resources and services.